Showing default

PERUSAT 1, 41770

Orbit data source: Space-Track

PERUSAT 1, 41770 is a payload satellite owned by MOD Peru (PE) in SSO that was launched on Fri, 16 Sep 2016 UTC via a VEGA launch vehicle from the French Guiana (FRGUI). Payload-class satellites include a variety of spacecraft equipped with specific instruments for various scientific and technological missions. These include communications satellites like Starlink; space stations such as the ISS; scientific satellites like the Hubble; Earth observation satellites from companies like Planet Labs, Umbra, and HawkEye 360; GPS; miniature CubeSats for education and research; and military/defense satellites.

Loading next visibility...
Identifier
41770, 2016-058A
Orbit
SSO
Country
Flag of PEPE / PER
Related business
Manufacturer
Airbus/Toulouse
Mission
Operational Defense Imaging
Bus & Motor
ASTROBUS-S, Unknown motor
Mass
430 kg wet, ~400 kg dry
Launch date (UTC)
2016-09-16 (9 years ago)
Launch vehicle
VEGA
Launch site
French Guiana (FRGUI)
Object type
Payload
Rocket body
Debris
Shape & HBR
Hex Cyl + 3 Pan, 2.6 m
Radar Cross Section
3.025 m², Large (>1 m²)

Expand to show TLE details & history
Last TLE update: 6 hours ago

TLE from 6 hours ago
0 PERUSAT 1
1 41770U 16058A   25290.79816125  .00000794  00000-0  18066-3 0  9990
2 41770  98.1772   2.8441 0001339  87.6610 272.4742 14.58531522483760
Epoch: 2025-10-17T19:09Z
TLE epoch observation values (Epoch: 2025-10-17T19:09:21.132Z)
Latitude
-0.00006°
Longitude
48.96769°
Altitude
700.863 km
Speed
7.506 km/s
True Right ascension
00h 11m 22s
True Declination
0° 00' 00"
Sunlit
Object was in full shadow at epoch
Visualization orbit readout
Latitude
Unknown
Longitude
Unknown
Altitude
Unknown
Speed
Unknown
Apparent Right ascension
Unknown
Apparent Declination
Unknown
Sunlit
N/A
Visualization observer readout
Local Sidereal Time
19:27:02
Azimuth
Unknown
Elevation
Unknown
Doppler factor
Unknown
Orbital elements
Apogee altitude
695.949 km
Perigee altitude
694.055 km
Semi-major axis
7,073.139 km
Eccentricity
0.00013
Inclination
98.1772°
RAAN
2.8441°
Arg. of periapsis
87.661°
True anomaly
272.45887°
Mean anomaly
272.4742°
Eccentric anomaly
272.46654°
Mean motion
3.64859 °/min
Orbital period
98.67 mins
BSTAR
0.00018066
Loading maneuver chart data...
Computing Atmospheric mass density...
Loading historical data...
Loading historical data...
Loading historical data...
Loading historical data...
Loading historical data...
Loading historical data...
Loading historical data...

Documentation

Showing up to 5 results
|